timestamp,surface_pressure_avg,surface_temp_avg,battery_voltage,lat,long
2019-11-17 00:09:01+00:00,267.3831,7.47,12.81,47.84626,-54.09684
2019-11-17 00:19:01+00:00,274.9647,7.46,12.73,47.84626,-54.09684
2019-11-17 00:29:01+00:00,282.6314,7.4,12.73,47.84626,-54.09684
2019-11-17 00:39:01+00:00,290.838,7.4,12.73,47.84626,-54.09684
2019-11-17 00:49:01+00:00,297.8196,7.4,12.73,47.84626,-54.09684
2019-11-17 00:59:01+00:00,306.2313,7.4,12.73,47.84626,-54.09684
2019-11-17 01:09:01+00:00,313.8896,7.4,12.73,47.84626,-54.09684
2019-11-17 01:19:01+00:00,321.7996,7.4,12.73,47.84626,-54.09684
2019-11-17 01:29:01+00:00,325.6013,7.4,12.73,47.84626,-54.09684
2019-11-17 01:39:01+00:00,332.1046,7.4,12.73,47.84626,-54.09684
2019-11-17 01:49:01+00:00,337.4562,7.39,12.73,47.84626,-54.09684
2019-11-17 01:59:01+00:00,335.61800000000005,7.38,12.73,47.84626,-54.09684
2019-11-17 02:09:01+00:00,333.5114,7.39,12.73,47.84626,-54.09684
2019-11-17 02:19:01+00:00,335.3597,7.3,12.73,47.84626,-54.09684
2019-11-17 02:29:01+00:00,339.7762,7.3,12.73,47.84626,-54.09684
2019-11-17 02:39:01+00:00,338.348,7.3,12.73,47.84626,-54.09684
2019-11-17 02:49:01+00:00,338.6379,7.3,12.73,47.84626,-54.09684
2019-11-17 02:59:01+00:00,341.923,7.3,12.73,47.84626,-54.09684
2019-11-17 03:09:01+00:00,341.2897,7.3,12.73,47.84626,-54.09684
2019-11-17 03:19:01+00:00,341.3863,7.3,12.73,47.84626,-54.09684
2019-11-17 03:29:01+00:00,341.3746,7.39,12.73,47.84626,-54.09684
2019-11-17 03:39:01+00:00,339.5679,7.65,12.73,47.84626,-54.09684
2019-11-17 03:49:01+00:00,334.4529,7.88,12.73,47.84626,-54.09684
2019-11-17 03:59:01+00:00,333.7579,7.9,12.73,47.84626,-54.09684
2019-11-17 04:09:01+00:00,330.5946,7.91,12.73,47.84626,-54.09684
2019-11-17 04:19:01+00:00,318.908,7.94,12.73,47.84626,-54.09684
2019-11-17 04:29:01+00:00,318.783,7.92,12.73,47.84626,-54.09684
2019-11-17 04:39:01+00:00,324.0546,7.92,12.73,47.84626,-54.09684
2019-11-17 04:49:01+00:00,317.688,7.9,12.73,47.84626,-54.09684
2019-11-17 04:59:01+00:00,307.3914,7.8,12.73,47.84626,-54.09684
2019-11-17 05:09:01+00:00,306.8513,7.6,12.73,47.84626,-54.09684
2019-11-17 05:19:01+00:00,303.3697,7.57,12.73,47.84626,-54.09684
2019-11-17 05:29:01+00:00,290.1848,7.49,12.73,47.84626,-54.09684
2019-11-17 05:39:01+00:00,283.8647,7.55,12.73,47.84626,-54.09684
2019-11-17 05:49:01+00:00,278.9514,7.6,12.73,47.84626,-54.09684
2019-11-17 05:59:01+00:00,267.3397,7.5,12.73,47.84626,-54.09684
2019-11-17 06:09:01+00:00,255.4197,7.49,12.73,47.84626,-54.09684
2019-11-17 06:19:01+00:00,253.1348,7.5,12.65,47.84626,-54.09684
2019-11-17 06:29:01+00:00,245.4447,7.5,12.65,47.84626,-54.09684
2019-11-17 06:39:01+00:00,233.2065,7.5,12.65,47.84626,-54.09684
2019-11-17 06:49:01+00:00,226.6531,7.5,12.65,47.84626,-54.09684
2019-11-17 06:59:01+00:00,226.9297,7.6,12.65,47.84626,-54.09684
2019-11-17 07:09:01+00:00,218.5264,7.6,12.65,47.84626,-54.09684
2019-11-17 07:19:01+00:00,210.1365,7.57,12.65,47.84626,-54.09684
2019-11-17 07:29:01+00:00,212.4764,7.59,12.65,47.84626,-54.09684
2019-11-17 07:39:01+00:00,210.6398,7.6,12.65,47.84626,-54.09684
2019-11-17 07:49:01+00:00,204.4314,7.56,12.65,47.84626,-54.09684
2019-11-17 07:59:01+00:00,203.2148,7.52,12.65,47.84626,-54.09684
2019-11-17 08:09:01+00:00,207.3331,7.58,12.65,47.84626,-54.09684
2019-11-17 08:19:01+00:00,208.6331,7.6,12.65,47.84626,-54.09684
2019-11-17 08:29:01+00:00,204.6982,7.6,12.65,47.84626,-54.09684
2019-11-17 08:39:01+00:00,208.0798,7.59,12.65,47.84626,-54.09684
2019-11-17 08:49:01+00:00,214.6798,7.59,12.65,47.84626,-54.09684
2019-11-17 08:59:01+00:00,218.1298,7.59,12.65,47.84626,-54.09684
2019-11-17 09:09:01+00:00,219.1397,7.58,12.65,47.84626,-54.09684
2019-11-17 09:19:01+00:00,226.5631,7.58,12.65,47.84626,-54.09684
2019-11-17 09:29:01+00:00,235.2097,7.58,12.65,47.84626,-54.09684
2019-11-17 09:39:01+00:00,240.8081,7.5,12.65,47.84626,-54.09684
2019-11-17 09:49:01+00:00,250.0548,7.5,12.65,47.84626,-54.09684
2019-11-17 09:59:01+00:00,256.9564,7.53,12.65,47.84626,-54.09684
2019-11-17 10:09:01+00:00,259.7764,7.59,12.65,47.84626,-54.09684
2019-11-17 10:19:01+00:00,263.0964,7.6,12.65,47.84626,-54.09684
2019-11-17 10:29:01+00:00,268.5147,7.6,12.65,47.84626,-54.09684
2019-11-17 10:39:01+00:00,273.8881,7.57,12.65,47.84626,-54.09684
2019-11-17 10:49:01+00:00,278.7031,7.43,12.65,47.84626,-54.09684
2019-11-17 10:59:01+00:00,284.488,7.4,12.65,47.84626,-54.09684
2019-11-17 11:09:01+00:00,287.3931,7.4,12.65,47.84626,-54.09684
2019-11-17 11:19:01+00:00,289.488,7.4,12.65,47.84626,-54.09684
2019-11-17 11:29:01+00:00,294.9496,7.31,12.65,47.84626,-54.09684
2019-11-17 11:39:01+00:00,302.9846,7.3,12.65,47.84626,-54.09684
2019-11-17 11:49:01+00:00,308.7646,7.3,12.65,47.84626,-54.09684
2019-11-17 11:59:01+00:00,312.2247,7.3,12.65,47.84626,-54.09684
2019-11-17 12:09:01+00:00,319.913,7.31,12.65,47.84626,-54.09684
2019-11-17 12:19:01+00:00,327.608,7.34,14.4,47.84626,-54.09684
2019-11-17 12:29:01+00:00,333.8796,7.33,14.4,47.84626,-54.09684
2019-11-17 12:39:01+00:00,339.8747,7.32,14.4,47.84626,-54.09684
2019-11-17 12:49:01+00:00,348.6346,7.34,14.4,47.84626,-54.09684
2019-11-17 12:59:01+00:00,356.6196,7.34,14.4,47.84626,-54.09684
2019-11-17 13:09:01+00:00,361.9246,7.35,14.4,47.84626,-54.09684
2019-11-17 13:19:01+00:00,368.0446,7.39,14.8,47.84626,-54.09684
2019-11-17 13:29:01+00:00,378.5196,7.4,14.8,47.84626,-54.09684
2019-11-17 13:39:01+00:00,379.61800000000005,7.43,14.8,47.84626,-54.09684
2019-11-17 13:49:01+00:00,379.2246,7.5,14.8,47.84626,-54.09684
2019-11-17 13:59:01+00:00,388.5629,7.5,14.8,47.84626,-54.09684
2019-11-17 14:09:01+00:00,393.8129,7.5,14.8,47.84626,-54.09684
2019-11-17 14:19:01+00:00,394.8395,7.58,14.8,47.84626,-54.09684
2019-11-17 14:29:01+00:00,397.6512,7.6,14.8,47.84626,-54.09684
2019-11-17 14:39:01+00:00,402.1113,7.6,14.8,47.84626,-54.09684
2019-11-17 14:49:01+00:00,402.5246,7.6,14.8,47.84626,-54.09684
2019-11-17 14:59:01+00:00,402.1296,7.6,14.8,47.84626,-54.09684
2019-11-17 15:09:01+00:00,403.8129,7.6,14.8,47.84626,-54.09684
2019-11-17 15:19:01+00:00,402.37300000000016,7.6,14.72,47.84626,-54.09684
2019-11-17 15:29:01+00:00,398.0695,7.6,14.72,47.84626,-54.09684
2019-11-17 15:39:01+00:00,394.0145,7.6,14.72,47.84626,-54.09684
2019-11-17 15:49:01+00:00,391.4129,7.6,14.72,47.84626,-54.09684
2019-11-17 15:59:01+00:00,386.61300000000006,7.59,14.72,47.84626,-54.09684
2019-11-17 16:09:01+00:00,386.3296,7.59,14.72,47.84626,-54.09684
2019-11-17 16:19:01+00:00,386.3862,7.56,14.64,47.84626,-54.09684
2019-11-17 16:29:01+00:00,380.8763,7.57,14.64,47.84626,-54.09684
2019-11-17 16:39:01+00:00,376.1079,7.59,14.64,47.84626,-54.09684
2019-11-17 16:49:01+00:00,375.7579,7.58,14.64,47.84626,-54.09684
2019-11-17 16:59:01+00:00,370.9347,7.56,14.64,47.84626,-54.09684
2019-11-17 17:09:01+00:00,359.4313,7.57,14.64,47.84626,-54.09684
2019-11-17 17:19:01+00:00,355.9097,7.55,14.56,47.84626,-54.09684
2019-11-17 17:29:01+00:00,353.6713,7.53,14.56,47.84626,-54.09684
2019-11-17 17:39:01+00:00,343.7213,7.5,14.56,47.84626,-54.09684
2019-11-17 17:49:01+00:00,333.403,7.5,14.56,47.84626,-54.09684
2019-11-17 17:59:01+00:00,326.8447,7.54,14.56,47.84626,-54.09684
2019-11-17 18:09:01+00:00,318.0897,7.5,14.56,47.84626,-54.09684
2019-11-17 18:19:01+00:00,306.573,7.5,14.4,47.84626,-54.09684
2019-11-17 18:29:01+00:00,295.1697,7.5,14.4,47.84626,-54.09684
2019-11-17 18:39:01+00:00,286.173,7.5,14.4,47.84626,-54.09684
2019-11-17 18:49:01+00:00,275.7281,7.5,14.4,47.84626,-54.09684
2019-11-17 18:59:01+00:00,264.2631,7.5,14.4,47.84626,-54.09684
2019-11-17 19:09:01+00:00,255.2581,7.5,14.4,47.84626,-54.09684
2019-11-17 19:19:01+00:00,251.8314,7.5,14.08,47.84626,-54.09684
2019-11-17 19:29:01+00:00,249.0598,7.56,14.08,47.84626,-54.09684
2019-11-17 19:39:01+00:00,244.8297,7.59,14.08,47.84626,-54.09684
2019-11-17 19:49:01+00:00,237.4081,7.52,14.08,47.84626,-54.09684
2019-11-17 19:59:01+00:00,232.7698,7.58,14.08,47.84626,-54.09684
2019-11-17 20:09:01+00:00,232.6547,7.6,14.08,47.84626,-54.09684
2019-11-17 20:19:01+00:00,235.6298,7.67,13.53,47.84626,-54.09684
2019-11-17 20:29:01+00:00,235.3481,7.7,13.53,47.84626,-54.09684
2019-11-17 20:39:01+00:00,234.4015,7.7,13.53,47.84626,-54.09684
2019-11-17 20:49:01+00:00,238.5648,7.75,13.53,47.84626,-54.09684
2019-11-17 20:59:01+00:00,243.6864,7.8,13.53,47.84626,-54.09684
2019-11-17 21:09:01+00:00,244.4364,7.7,13.53,47.84626,-54.09684
2019-11-17 21:19:01+00:00,244.9581,7.6,13.13,47.84626,-54.09684
2019-11-17 21:29:01+00:00,246.8081,7.68,13.13,47.84626,-54.09684
2019-11-17 21:39:01+00:00,250.8547,7.7,13.13,47.84626,-54.09684
2019-11-17 21:49:01+00:00,254.8564,7.75,13.13,47.84626,-54.09684
2019-11-17 21:59:01+00:00,259.2564,7.8,13.13,47.84626,-54.09684
2019-11-17 22:09:01+00:00,261.5747,7.8,13.13,47.84626,-54.09684
2019-11-17 22:19:01+00:00,262.7147,7.8,12.81,47.84626,-54.09684
2019-11-17 22:29:01+00:00,267.5797,7.74,12.81,47.84626,-54.09684
2019-11-17 22:39:01+00:00,271.9731,7.7,12.81,47.84626,-54.09684
2019-11-17 22:49:01+00:00,272.5497,7.68,12.81,47.84626,-54.09684
2019-11-17 22:59:01+00:00,273.1664,7.6,12.81,47.84626,-54.09684
2019-11-17 23:09:01+00:00,277.4864,7.6,12.81,47.84626,-54.09684
2019-11-17 23:19:01+00:00,277.4581,7.6,12.73,47.84626,-54.09684
2019-11-17 23:29:01+00:00,278.0397,7.5,12.73,47.84626,-54.09684
2019-11-17 23:39:01+00:00,280.1814,7.5,12.73,47.84626,-54.09684
2019-11-17 23:49:01+00:00,282.9696,7.5,12.73,47.84626,-54.09684
2019-11-17 23:59:01+00:00,280.2347,7.5,12.73,47.84626,-54.09684
